This is the latest recevied weather packets stored in our database for station/object EA6AMI-5. If no packets are shown the sender has not sent any weather packets the latest 10 day(s).
| Time | Temp. | Humidity | Pressure | Rain* | Wind** | Luminosity | Snow |
|---|---|---|---|---|---|---|---|
| 1787888163 | 26.67° C | 67% | 1015.6 hPa | 0 mm | - | 0 W/m² | - |
| 1787887623 | 26.67° C | 70% | 1015.1 hPa | 0 mm | - | 0 W/m² | - |
| 1787887083 | 26.11° C | 76% | 1015.3 hPa | 0 mm | - | 0 W/m² | - |
| 1787886543 | 26.11° C | 76% | 1015.4 hPa | 0 mm | - | 0 W/m² | - |
| 1787886003 | 26.11° C | 76% | 1015.5 hPa | 0 mm | - | 0 W/m² | - |
| 1787885644 | 26.11° C | 76% | 1015.2 hPa | 0 mm | - | 0 W/m² | - |
| 1787885103 | 26.11° C | 75% | 1014.7 hPa | 0 mm | - | 0 W/m² | - |
| 1787884563 | 26.11° C | 76% | 1015.1 hPa | 0 mm | - | 0 W/m² | - |
| 1787884023 | 26.11° C | 75% | 1015.2 hPa | 0 mm | - | 0 W/m² | - |
| 1787883483 | 26.11° C | 74% | 1015.1 hPa | 0 mm | - | 0 W/m² | - |
| 1787882944 | 26.67° C | 75% | 1015.4 hPa | 0 mm | - | 0 W/m² | - |
| 1787882403 | 26.67° C | 74% | 1015.1 hPa | 0 mm | - | 0 W/m² | - |
| 1787882044 | 26.67° C | 72% | 1014.9 hPa | 0 mm | - | 0 W/m² | - |
| 1787881503 | 26.67° C | 70% | 1015.5 hPa | 0 mm | - | 0 W/m² | - |
| 1787880963 | 27.22° C | 66% | 1015.4 hPa | 0 mm | - | 0 W/m² | - |
| 1787880423 | 27.78° C | 60% | 1015.6 hPa | 0 mm | - | 0 W/m² | - |
| 1787879883 | 28.33° C | 52% | 1015.7 hPa | 0 mm | - | 0 W/m² | - |
| 1787879343 | 28.33° C | 47% | 1015.7 hPa | 0 mm | - | 0 W/m² | - |
| 1787878804 | 28.33° C | 43% | 1015.7 hPa | 0 mm | - | 0 W/m² | - |
| 1787878443 | 28.89° C | 41% | 1015.7 hPa | 0 mm | - | 0 W/m² | - |
| 1787877903 | 28.89° C | 40% | 1015.6 hPa | 0 mm | - | 0 W/m² | - |
| 1787877363 | 28.89° C | 42% | 1015.4 hPa | 0 mm | - | 0 W/m² | - |
| 1787876823 | 28.89° C | 44% | 1015.5 hPa | 0 mm | - | 0 W/m² | - |
| 1787876284 | 28.33° C | 47% | 1015.4 hPa | 0 mm | - | 0 W/m² | - |
| 1787875743 | 27.22° C | 54% | 1015.3 hPa | 0 mm | - | 0 W/m² | - |
* Rain latest hour (hover to see other rain measurements)
** Current wind speed in m/s (hover to see current wind gust speed)